Weather in Tres Lagoas

Brazil     20°47′41″S   51°40′50″W
temp.,
°C
wind,
m/s
gust,
m/s
humid.,
%
clouds,
%
prec.,
mm/h
press.,
hPa
HPBL,
m
17 may, mon
mon1700:00+20sse375560 0.0 1017154
03:00+17sse126798 0.0 101611
06:00+16e117379 0.0 101711
09:00+23e22502 0.0 1019322
12:00+31sse12300 0.0 10171552
15:00+32ssw44240 0.0 10143042
18:00+25ssw223510 0.0 101424
21:00+23ese114039 0.0 101511
18 may, tue
tue1800:00+23se12412 0.0 101636
03:00+18s11590 0.0 101511
06:00+17sse11670 0.0 101611
09:00+24se22470 0.0 1017292
12:00+32sse12300 0.0 10151639
15:00+32sw34250 0.0 10122920
18:00+26ssw23370 0.0 101228
21:00+24sw114250 0.0 101412
19 may, wed
wed1900:00+21sse36510 0.0 101488
03:00+18ese22570 0.0 101422
06:00+17ese11585 0.0 101511
09:00+24ene233711 0.0 1016316
12:00+32nne23255 0.0 10141476
15:00+34w23202 0.0 10103194
18:00+27sse22295 0.0 101014
21:00+23ese223853 0.0 101217
20 may, thu
thu2000:00+21e34435 0.0 101253
03:00+18ese225324 0.0 101216
06:00+18ene225560 0.0 101419
09:00+25ne473445 0.0 1015351
12:00+34nne45195 0.0 10131532
15:00+36nw341642 0.0 10093662
18:00+28w112557 0.0 100911
21:00+24ese2232100 0.0 101117
21 may, fri
fri2100:00+25nne2228100 0.0 101122
03:00+21n223298 0.0 101020
06:00+20ne333451 0.0 101042
09:00+26n58275 0.0 1012327
12:00+36nw672060 0.0 10092858
15:00+36w582093 0.0 10063462
18:00+31w353119 0.0 100682
21:00+26se114023 0.0 100813